Other Surface Observations
Issued by NWS

Current Version | Previous Version | Text Only | Print | Product List | Glossary On
Versions: 1 2 3 4 5 6 7 8 9 10 11 12 13 14 15 16 17 18 19 20 21 22 23 24 25 26 27 28 29 30 31 32 33 34 35 36 37 38 39 40 41 42 43 44 45 46 47 48 49 50
000
SXUS52 KTAE 292318
OSOTAE
OSOTAE
North Florida/South Alabama/Southwest Georgia Weather Roundup
National Weather Service Tallahassee Florida
700 PM EDT SUN MAR 29 2015

Note: "fair" indicates few or no clouds below 12,000 feet with no
significant weather and/or obstructions to visibility.

!FLZ017-115-028-034-025-300000
...North Florida...

CITY           SKY/WX    TMP DP  RH WIND       PRES   REMARKS
TALLAHASSEE    MOSUNNY   66  38  35 S10       30.29R
APALACHICOLA   SUNNY     64  41  42 S8        30.31S
PERRY          SUNNY     66  32  27 CALM      30.31R
CROSS CITY       N/A     68  33  27 NE5       30.29S
JACKSONVILLE   CLEAR     56  36  47 E12       30.35R
$$

!FLZ112-006-005-002-011-300000
...Florida Panhandle...

CITY           SKY/WX    TMP DP  RH WIND       PRES   REMARKS
MARIANNA       SUNNY     67  40  37 VRB3      30.26F
BONIFAY        FAIR      68  42  38 CALM      30.27S
PANAMA CITY NW FAIR      63  42  46 S10       30.28S
TYNDALL AFB    SUNNY     62  45  54 S13       30.30S
TYND DRONE APT FAIR      61  47  61 S12       30.29F
DE FUNIAK SPR  FAIR      64  41  43 SW8       30.28S
EGLIN AFB      MOSUNNY   63  47  55 S10       30.28F
DESTIN         SUNNY     64  47  53 S7        30.29S
HURLBURT       SUNNY     63  45  51 SE12      30.27F
CRESTVIEW      SUNNY     65  44  46 S9        30.28S
PENSACOLA      SUNNY     63  50  62 S12       30.27F
$$

!ALZ063-066-300000
...South Alabama...

CITY           SKY/WX    TMP DP  RH WIND       PRES   REMARKS
DOTHAN         SUNNY     65  38  36 S5        30.29F
OZARK CAIRNS   SUNNY     67  37  33 VRB5      30.25F
FT RUCKER HELI SUNNY     67  40  37 S6        30.24F
RUCKER HELI 3  FAIR      66  40  39 S5        30.26F
RUCKER HELI 2  FAIR      65  39  38 S6        30.25F
FLORALA APT    SUNNY     66  41  40 SW12      30.27S
ANDALUSIA      SUNNY     72  41  32 VRB5      30.23F
TROY           SUNNY     67  40  37 S9        30.24F
EUFALA         CLOUDY    64  34  32 S5        30.26F
MOBILE         CLOUDY    63  54  72 SE13      30.26S
$$

!GAZ120>161-300000
...Southwest and South Central Georgia...

CITY           SKY/WX    TMP DP  RH WIND       PRES   REMARKS
THOMASVILLE    FAIR      64  32  29 CALM      30.31S
BAINBRIDGE     SUNNY     68  36  30 CALM      30.29S
MOODY AFB      CLEAR     63  26  24 S1        30.29S
VALDOSTA       CLEAR     61  29  29 S3        30.30S
MOULTRIE       SUNNY     63  32  31 CALM      30.31S
BLAKELY        CLOUDY    66  34  30 S6        30.29S
ALBANY         SUNNY     63  28  26 E7        30.31F
TIFTON         FAIR      61  22  22 SW3       30.30S
FITZGERALD     FAIR      62  16  17 CALM      30.33S
CORDELE        FAIR      64  21  19 S5        30.31S
AMERICUS       MOCLDY    59  30  33 SE3       30.30F
HOMERVILLE     FAIR      64  32  29 SE5       30.31R
$$

!GMZ750-755-770-775-300000
...Coastal and Buoy Obs...

STATION/POSITION TIME  TEMP    WIND        PRES    VSBY  WAVE
                       AIR SEA DIR/SP/G                  HT/PER
                 (UTC) (F)     (DEG/KT/KT) (MB)    (MI)  (FT/S)
KEATON BEACH     2300   61     250/  9/ 10 1026.5R
CEDAR KEY        2300   63     270/  5/  7 1026.7R
C TOWER          2300   60     120/  8/  9 1026.3F
APALACHICOLA BUO 2250   62 68  100/  8/ 10 1026.5F         2/ 5
PANAMA CITY BUOY 2250   64 75  140/ 12/ 17 1026.0F         2/ 5
MOBILE BUOY      2250   69 71  160/ 16/ 19 1024.4F         3/ 5
ORANGE BCH AL BU 2250   65 67  130/ 14/ 16 1024.0F         3/ 5
$$



USA.gov is the U.S. government's official web portal to all federal, state and local government web resources and services.